Weather History for KIOW - December, 2012

Change the Weather History Date:

Thursday, December 6, 2012

  Actual Average Record
Temperature  
Mean Temperature 45 °F 28 °F  
Max Temperature 51 °F 36 °F 62 °F (1975)
Min Temperature 38 °F 20 °F -6 °F (1977)
Degree Days  
Heating Degree Days 20 37  
Month to date heating degree days 109 213  
Since 1 July heating degree days 1448 1520  
Cooling Degree Days 0 0  
Month to date cooling degree days 0 0  
Year to date cooling degree days 1266 912  
Moisture  
Dew Point 35 °F    
Average Humidity 71    
Maximum Humidity 83    
Minimum Humidity 59    
Precipitation  
Precipitation T in 0.07 in 0.29 in (1998)
Month to date precipitation 0.02 0.42  
Year to date precipitation 24.85 35.18  
Sea Level Pressure  
Sea Level Pressure 29.99 in    
Wind  
Wind Speed 8 mph (South)    
Max Wind Speed 15 mph    
Max Gust Speed 18 mph    
Visibility 10 miles    
Events      
T = Trace of Precipitation, MM = Missing Value Source: NWS Daily Summary

Daily Weather History Graph

Daily Weather History Graph

Search for Another Location

Airport or City:

Trip Planner

Search our weather history database for the weather conditions in past years. The results will help you decide how hot, cold, wet, or windy it might be!

Date:

Astronomy

Dec. 06, 2012 Rise Set
Actual Time 7:18 AM CST 4:35 PM CST
Civil Twilight 6:47 AM CST 5:07 PM CST
Nautical Twilight 6:13 AM CST 5:41 PM CST
Astronomical Twilight 5:39 AM CST 6:15 PM CST
Moon No Moon Rise 12:07 PM CST (12/6)
Length of Visible Light 10h 19m
Length of Day
9h 16m
Waning Gibbous, 49% of the Moon is Illuminated
Dec 6
Waning Gibbous
Dec 13
New
Dec 19
First Quarter
Dec 28
Full
Jan 4
Last Quarter

Hourly Weather History & Observations

Time (CST) Temp. Windchill Dew Point Humidity Pressure Visibility Wind Dir Wind Speed Gust Speed Precip Events Conditions
12:52 AM 37.9 °F 32.1 °F 32.0 °F 79% 30.12 in 10.0 mi SE 8.1 mph - N/A   Clear
1:52 AM 37.9 °F 30.9 °F 32.0 °F 79% 30.10 in 10.0 mi SE 10.4 mph - N/A   Clear
2:52 AM 39.0 °F 32.8 °F 32.0 °F 76% 30.08 in 10.0 mi SSE 9.2 mph - N/A   Mostly Cloudy
3:52 AM 39.0 °F 32.3 °F 33.1 °F 79% 30.06 in 10.0 mi SSE 10.4 mph - N/A   Scattered Clouds
4:52 AM 39.0 °F 33.4 °F 33.1 °F 79% 30.05 in 10.0 mi SE 8.1 mph - N/A   Clear
5:52 AM 39.0 °F 34.0 °F 33.1 °F 79% 30.05 in 10.0 mi SE 6.9 mph - N/A   Clear
6:52 AM 39.0 °F 34.0 °F 33.1 °F 79% 30.04 in 10.0 mi SE 6.9 mph - N/A   Partly Cloudy
7:52 AM 39.9 °F 37.8 °F 34.0 °F 79% 30.03 in 10.0 mi SE 3.5 mph - N/A   Partly Cloudy
8:52 AM 42.1 °F 36.6 °F 34.0 °F 73% 30.02 in 10.0 mi South 9.2 mph - N/A   Scattered Clouds
9:52 AM 44.1 °F 38.6 °F 35.1 °F 71% 30.01 in 10.0 mi South 10.4 mph - N/A   Scattered Clouds
10:52 AM 46.9 °F - 35.1 °F 63% 29.98 in 10.0 mi South 10.4 mph - N/A   Clear
11:52 AM 46.9 °F - 35.1 °F 63% 29.95 in 10.0 mi South 10.4 mph - N/A   Mostly Cloudy
12:52 PM 48.0 °F - 36.0 °F 63% 29.93 in 10.0 mi SSW 5.8 mph - N/A   Overcast
1:52 PM 48.9 °F - 37.0 °F 64% 29.92 in 10.0 mi SSW 5.8 mph - N/A   Clear
2:52 PM 51.1 °F - 37.0 °F 59% 29.92 in 10.0 mi WSW 8.1 mph - N/A   Partly Cloudy
3:52 PM 50.0 °F - 37.0 °F 61% 29.92 in 10.0 mi WSW 4.6 mph - N/A   Mostly Cloudy
4:52 PM 48.0 °F - 37.0 °F 66% 29.92 in 10.0 mi Calm Calm - N/A   Overcast
5:52 PM 46.0 °F 44.8 °F 37.0 °F 71% 29.93 in 10.0 mi West 3.5 mph - N/A   Mostly Cloudy
6:52 PM 46.0 °F 41.9 °F 36.0 °F 68% 29.95 in 10.0 mi NNW 8.1 mph - N/A   Overcast
7:52 PM 46.0 °F 43.1 °F 37.0 °F 71% 29.96 in 10.0 mi NW 5.8 mph - N/A   Overcast
8:52 PM 45.0 °F 40.1 °F 37.9 °F 76% 29.96 in 10.0 mi NNW 9.2 mph - N/A   Overcast
9:52 PM 44.1 °F 39.0 °F 39.0 °F 82% 29.96 in 10.0 mi NNW 9.2 mph - 0.00 in   Overcast
10:52 PM 44.1 °F 39.0 °F 37.0 °F 76% 29.97 in 10.0 mi NNW 9.2 mph - 0.00 in   Overcast
11:52 PM 44.1 °F 39.0 °F 33.1 °F 65% 29.97 in 10.0 mi North 9.2 mph - N/A   Overcast